Regional Weather Roundup
Issued by NWS

Home | Current Version | Previous Version | Text Only | Print | Product List | Glossary Off
Versions: 1 2 3 4 5 6 7 8 9 10 11 12 13 14 15 16 17 18 19 20 21 22 23 24 25 26 27 28 29 30 31 32 33 34 35 36 37 38 39 40 41 42 43 44 45 46 47 48 49 50

000
ASUS43 KBIS 271231
RWRND
NORTH DAKOTA REGIONAL WEATHER ROUNDUP
NATIONAL WEATHER SERVICE EASTERN NORTH DAKOTA/GRAND FORKS ND
700 AM CDT TUE JUN 27 2017

  NOTE: "FAIR" INDICATES FEW OR NO CLOUDS BELOW 12,000 FEET WITH NO
  SIGNIFICANT WEATHER AND/OR OBSTRUCTIONS TO VISIBILITY.

NDZ001>003-009>011-017-271300-
...NORTHWEST NORTH DAKOTA...

CITY           SKY/WX    TMP DP  RH WIND       PRES   REMARKS
WILLISTON      FAIR      66  42  41 VRB3      29.68F
6HR MIN TEMP:  66; 6HR MAX TEMP:  71; 6HR PCP: TRACE;

MINOT          FAIR      63  38  39 S20G32    29.76F
MINOT AFB      FAIR      62  39  42 S16G24    29.74F
6HR MIN TEMP:  58; 6HR MAX TEMP:  62;

$$

NDZ018>021-031>035-040>046-271300-
...SOUTHWEST NORTH DAKOTA...

CITY           SKY/WX    TMP DP  RH WIND       PRES   REMARKS
BISMARCK       FAIR      59  41  51 SE12      29.84F
DICKINSON      FAIR      57  37  47 S20       29.72F
GARRISON         N/A     59  41  51 S12       29.79F
HETTINGER      FAIR      58  40  51 SE13      29.78F
$$

NDZ004>008-012>016-024-026-027-054-271300-
...NORTHEAST NORTH DAKOTA...

CITY           SKY/WX    TMP DP  RH WIND       PRES   REMARKS
GRAND FORKS    PTSUNNY   53  45  74 S9        29.93F
GRAND FORKS AF FAIR      56  42  60 S10       29.93S
DEVILS LAKE    FAIR      58  43  57 S17G24    29.89F
$$

NDZ022-023-025-028>030-036>039-047>053-271300-
...SOUTHEAST NORTH DAKOTA...

CITY           SKY/WX    TMP DP  RH WIND       PRES   REMARKS
JAMESTOWN      FAIR      55  41  59 S10       29.93F
FARGO          FAIR      57  42  57 S13       29.99S
WAHPETON       FAIR      54  43  66 S9        30.01F
$$




USA.gov is the U.S. government's official web portal to all federal, state and local government web resources and services.